Regional Weather Roundup
Issued by NWS

Home | Current Version | Previous Version | Text Only | Print | Product List | Glossary On
Versions: 1 2 3 4 5 6 7 8 9 10 11 12 13 14 15 16 17 18 19 20 21 22 23 24 25 26 27 28 29 30 31 32 33 34 35 36 37 38 39 40 41 42 43 44 45 46 47 48 49 50
000
ASUS43 KDTX 230010
RWRMI
MICHIGAN HOURLY REGIONAL WEATHER ROUNDUP
NATIONAL WEATHER SERVICE DETROIT/PONTIAC MI
ISSUED BY NATIONAL WEATHER SERVICE GRAND RAPIDS MI
700 PM EST SUN JAN 22 2017

NOTE: "FAIR" INDICATES FEW OR NO CLOUDS BELOW 12,000 FEET WITH NO
SIGNIFICANT WEATHER AND/OR OBSTRUCTION TO VISIBILITY.

MIZ047>049-052>055-059>063-066>070-074>076-081>083-230100-
SOUTHEAST LOWER MICHIGAN

CITY           SKY/WX    TMP DP  RH WIND       PRES   REMARKS
ADRIAN         CLOUDY    47  47 100 E12       29.61R
6HR MIN TEMP:  47; 6HR MAX TEMP:  55;

ALMA           FOG       41  40  98 N5        29.66S VSB 1/2
6HR MIN TEMP:  41; 6HR MAX TEMP:  43;

ANN ARBOR      FOG       46  46 100 N9        29.61R VSB 1/2
BAD AXE        CLOUDY    41  41 100 CALM      29.66R FOG
6HR MIN TEMP:  41; 6HR MAX TEMP:  47;

DETROIT CITY   FOG       46  46 100 E3        29.63R VSB 1/4
6HR MIN TEMP:  45; 6HR MAX TEMP:  48;

DETROIT        FOG       47  47 100 NE7       29.62S VSB 1/16
6HR MIN TEMP:  47; 6HR MAX TEMP:  49;

FLINT          FOG       42  42 100 N7        29.64R VSB 1/2
6HR MIN TEMP:  43; 6HR MAX TEMP:  49;

GROSSE ILE     FOG       44  44  99 NE5       29.62R VSB 1/4
6HR MIN TEMP:  44; 6HR MAX TEMP:  49;

HILLSDALE      FOG       46  46 100 NE5       29.60R VSB 1
HOWELL         FOG       44  43  96 N5        29.62S VSB 1/2

CITY           SKY/WX    TMP DP  RH WIND       PRES   REMARKS
JACKSON        CLOUDY    47  46  97 N5        29.61R FOG
6HR MIN TEMP:  47; 6HR MAX TEMP:  50;

LANSING        FOG       41  39  93 N6        29.65R VSB 1
6HR MIN TEMP:  41; 6HR MAX TEMP:  44;

MASON          FOG       42  42 100 N3        29.63R VSB 1/2
MONROE         FOG       47  47 100 NE5       29.60R VSB 3/4
MT. CLEMENS    FOG       46  46 100 CALM      29.61R VSB 1/16
6HR MIN TEMP:  44; 6HR MAX TEMP:  47;

PONTIAC        FOG       45  43  93 NE3       29.61R VSB 1/4
6HR MIN TEMP:  45; 6HR MAX TEMP:  49;

PORT HOPE        N/A     37  37 100 CALM      29.65R
6HR MIN TEMP:  36; 6HR MAX TEMP:  42;

PORT HURON     FOG       43  43 100 CALM      29.64S VSB 1/4
TRI CITIES     FOG       39  39 100 N7        29.66S VSB 1/8 WCI  34
6HR MIN TEMP:  38; 6HR MAX TEMP:  42;

YPSILANTI      FOG       48  48 100 NE6       29.62S VSB 1/4
6HR MIN TEMP:  48; 6HR MAX TEMP:  50;

$$
MIZ043>046-050>051-056>058-064>065-071>073-077>080-230100-
SOUTHWEST LOWER MICHIGAN

CITY           SKY/WX    TMP DP  RH WIND       PRES   REMARKS
BATTLE CREEK   FOG       41  41 100 NE6       29.63S VSB 1
6HR MIN TEMP:  41; 6HR MAX TEMP:  44;

BENTON HARBOR  CLOUDY    43  41  93 NE3       29.64R FOG
6HR MIN TEMP:  42; 6HR MAX TEMP:  43;

BIG RAPIDS     FOG       39  38  97 CALM      29.65S VSB 1/4
6HR MIN TEMP:  38; 6HR MAX TEMP:  41;

COLDWATER      FOG       45  45 100 NE7       29.61R VSB 1/2
6HR MIN TEMP:  45; 6HR MAX TEMP:  50;

HOLLAND        CLOUDY    44  41  89 NW3       29.66R
6HR MIN TEMP:  43; 6HR MAX TEMP:  45;

GRAND RAPIDS   CLOUDY    42  40  92 N5        29.65R FOG
6HR MIN TEMP:  39; 6HR MAX TEMP:  43;

KALAMAZOO      FOG       42  40  92 N5        29.63R VSB 1/2
6HR MIN TEMP:  40; 6HR MAX TEMP:  42;

MARSHALL       CLOUDY    42  41  98 CALM      29.62S FOG
6HR MIN TEMP:  42; 6HR MAX TEMP:  46;

MOUNT PLEASANT FOG       39  38  99 CALM      29.66R VSB 1/4
6HR MIN TEMP:  37; 6HR MAX TEMP:  42;

MUSKEGON       CLOUDY    41  38  89 N5        29.66S
6HR MIN TEMP:  40; 6HR MAX TEMP:  48;

STURGIS        FOG       42  42 100 NE8       29.60S VSB 1/2
6HR MIN TEMP:  42; 6HR MAX TEMP:  48;

$$
MIZ016>042-230100-
NORTHERN LOWER MICHIGAN

CITY           SKY/WX    TMP DP  RH WIND       PRES   REMARKS
ALPENA         CLOUDY    39  38  96 E3        29.69R FOG
6HR MIN TEMP:  38; 6HR MAX TEMP:  44;

BEAVER ISLAND  CLOUDY    35  35 100 CALM      29.69R FOG
6HR MIN TEMP:  35; 6HR MAX TEMP:  42;

BELLAIRE       CLOUDY    36  35  98 CALM      29.68R
6HR MIN TEMP:  35; 6HR MAX TEMP:  44;

CADILLAC       CLOUDY    40  38  93 N5        29.65R
CHARLEVOIX     CLOUDY    38  38 100 CALM      29.71R FOG
6HR MIN TEMP:  38; 6HR MAX TEMP:  42;

GAYLORD        CLOUDY    42  38  85 CALM      29.65S FOG
6HR MIN TEMP:  39; 6HR MAX TEMP:  46;

HOUGHTON LAKE  CLOUDY    38  36  92 CALM      29.66R
6HR MIN TEMP:  36; 6HR MAX TEMP:  47;

MANISTEE       CLOUDY    39  38  96 NW9       29.67S FOG     WCI  33
OSCODA         FOG       38  38  97 NW5       29.67S VSB 1/2 WCI  35
6HR MIN TEMP:  38; 6HR MAX TEMP:  44;

PELLSTON       FOG       37  35  92 NW3       29.69R VSB 3/4
6HR MIN TEMP:  35; 6HR MAX TEMP:  42; 6HR PCP: TRACE;

TRAVERSE CITY  CLOUDY    40  38  93 CALM      29.67R
6HR MIN TEMP:  40; 6HR MAX TEMP:  45;

LUDINGTON      FOG       35  35 100 CALM      29.67R VSB 1/4
6HR MIN TEMP:  34; 6HR MAX TEMP:  42;

$$
MIZ007>008-015-230100-
EASTERN UPPER MICHIGAN

CITY           SKY/WX    TMP DP  RH WIND       PRES   REMARKS
KINROSS        MIX PCPN  35  35 100 E5        29.70R VSB 3/4 WCI  31
6HR MIN TEMP:  35; 6HR MAX TEMP:  36; 6HR PCP: TRACE;

MACKINAC ISLAN FOG       36  36 100 E3        29.69R VSB 1/2
6HR MIN TEMP:  35; 6HR MAX TEMP:  36;

NEWBERRY       CLOUDY    36  35  96 SE3       29.68R FOG
6HR MIN TEMP:  35; 6HR MAX TEMP:  37;

S. S. MARIE    CLOUDY    38  36  92 E3        29.70R FOG
6HR MIN TEMP:  37; 6HR MAX TEMP:  38;

$$
MIZ004>006-011>014-085-230100-
CENTRAL UPPER MICHIGAN

CITY           SKY/WX    TMP DP  RH WIND       PRES   REMARKS
MANISTIQUE     FOG       35  34  96 E8        29.68R VSB 1/2 WCI  28
6HR MIN TEMP:  35; 6HR MAX TEMP:  37;

ESCANABA       FOG       36  34  93 CALM      29.68R VSB 1/2
6HR MIN TEMP:  35; 6HR MAX TEMP:  39;

SAWYER-GWINN   FOG       34  34 100 CALM      29.66R VSB 1/2
$$
MIZ001>003-009>011-084-230100-
WESTERN UPPER MICHIGAN

CITY           SKY/WX    TMP DP  RH WIND       PRES   REMARKS
IRON MOUNTAIN  FOG       35  33  92 CALM      29.65S VSB 1
6HR MIN TEMP:  35; 6HR MAX TEMP:  39;

HOUGHTON       FOG       35  33  92 W8        29.65R VSB 1/4 WCI  29
6HR MIN TEMP:  35; 6HR MAX TEMP:  36;

COPPER HARBOR    N/A     36  36 100 CALM      29.65R
6HR MIN TEMP:  34; 6HR MAX TEMP:  37;

IRONWOOD       FOG       34  33  96 NW3       29.70R VSB 3/4
6HR MIN TEMP:  34; 6HR MAX TEMP:  36;

$$

ABBREVIATIONS USED IN REMARKS
   TC - TEMPERATURE IN CELSIUS
  WCI - WIND CHILL INDEX
   HX - HEAT INDEX
  VSB - VISIBILITY




USA.gov is the U.S. government's official web portal to all federal, state and local government web resources and services.